Location: Melizzano
(41.1500°N, 14.5000°E)
Time: 08:26:11
(UTC+00:00)

Cosmos 2184 Rocket - Pass Details

Date: 11 May 2021
Orbit: 958 x 1003 km, 82.9° (Epoch: 15 June)

Event Time Altitude Azimuth Distance (km) Brightness Sun altitude
Rises 21:07:05 0° 348° (NNW) 3,677 8.2 -25.4°
Reaches altitude 10° 21:09:39 10° 344° (NNW) 2,720 7.3 -25.6°
Maximum altitude 21:15:41 55° 268° (W) 1,142 4.4 -26.1°
Enters shadow 21:17:29 41° 218° (SW) 1,357 4.5 -26.3°
